FW8906 Weather Reports


time (UTC)temp
F
wind
direction
speed
knots
gust
knots
rain 1hr
in
rain 24hr
in
rain mn
in
humidity
%
barometer
mb
20260503212050 75 284 1.7 4.3 0.00 0.00 0.00 51 1013.2
20260503211537 74 304 1.7 7.8 0.00 0.00 0.00 54 1013.2
20260503211105 74 300 2.6 7.8 0.00 0.00 0.00 52 1013.3
20260503210539 74 288 1.7 6.1 0.00 0.00 0.00 56 1013.4
20260503210058 74 271 1.7 7.8 0.00 0.00 0.00 59 1013.4
20260503205528 73 277 1.7 7.8 0.00 0.00 0.00 55 1013.5
20260503205037 73 269 3.5 9.6 0.00 0.00 0.00 57 1013.6
20260503204545 72 295 5.2 9.6 0.00 0.00 0.00 54 1013.7
20260503204025 72 274 4.3 7.8 0.00 0.00 0.00 60 1013.7
20260503203533 72 233 4.3 7.8 0.00 0.00 0.00 58 1013.8
20260503203041 72 278 5.2 7.8 0.00 0.00 0.00 54 1013.8
20260503202529 72 262 3.5 6.1 0.00 0.00 0.00 56 1013.8
20260503202029 72 291 2.6 7.0 0.00 0.00 0.00 59 1013.8
20260503201537 71 285 2.6 7.0 0.00 0.00 0.00 60 1013.9
20260503201045 71 317 1.7 7.0 0.00 0.00 0.00 60 1013.9
20260503200531 70 302 4.3 7.8 0.00 0.00 0.00 59 1013.9
20260503200108 71 315 4.3 7.8 0.00 0.00 0.00 62 1013.9
20260503195024 70 290 2.6 7.8 0.00 0.00 0.00 60 1014.0
20260503194532 70 271 6.1 7.8 0.00 0.00 0.00 59 1014.1
20260503194040 70 262 4.3 7.0 0.00 0.00 0.00 61 1014.2
20260503193549 70 269 4.3 6.1 0.00 0.00 0.00 59 1014.1
20260503193037 70 278 3.5 6.1 0.00 0.00 0.00 61 1014.2
20260503192537 70 243 3.5 7.8 0.00 0.00 0.00 62 1014.2
20260503192050 70 293 2.6 7.8 0.00 0.00 0.00 63 1014.3
20260503191529 69 245 3.5 6.1 0.00 0.00 0.00 60 1014.4
20260503191037 70 287 0.9 6.1 0.00 0.00 0.00 62 1014.4
20260503190546 70 354 2.6 6.1 0.00 0.00 0.00 61 1014.5
20260503190106 69 213 1.7 7.0 0.00 0.00 0.00 61 1014.5
20260503185527 69 34 1.7 7.0 0.00 0.00 0.00 59 1014.5
20260503185032 69 23 2.6 5.2 0.00 0.00 0.00 62 1014.6
20260503184530 69 276 1.7 5.2 0.00 0.00 0.00 63 1014.6
20260503184048 69 31 1.7 5.2 0.00 0.00 0.00 62 1014.7
20260503183527 68 300 1.7 5.2 0.00 0.00 0.00 64 1014.7
20260503182545 67 111 3.5 6.1 0.00 0.00 0.00 66 1014.8
20260503182024 68 44 2.6 5.2 0.00 0.00 0.00 63 1014.8
20260503181530 67 68 1.7 6.1 0.00 0.00 0.00 66 1014.9
20260503181038 67 65 2.6 6.1 0.00 0.00 0.00 62 1015.0
20260503180547 67 6 2.6 6.1 0.00 0.00 0.00 66 1015.1
20260503180106 66 65 2.6 6.1 0.00 0.00 0.00 70 1015.0
20260503175526 66 304 1.7 3.5 0.00 0.00 0.00 68 1015.1
20260503175035 66 88 1.7 5.2 0.00 0.00 0.00 67 1015.1
20260503174544 66 15 0.9 5.2 0.00 0.00 0.00 70 1015.1
20260503174048 66 307 1.7 5.2 0.00 0.00 0.00 67 1015.2
20260503173556 65 6 1.7 4.3 0.00 0.00 0.00 67 1015.3
20260503173105 65 319 2.6 5.2 0.00 0.00 0.00 67 1015.2
20260503172542 66 20 1.7 5.2 0.00 0.00 0.00 67 1015.2
20260503172031 66 271 1.7 6.1 0.00 0.00 0.00 71 1015.2
20260503171539 65 9 2.6 6.1 0.00 0.00 0.00 72 1015.3
20260503171050 65 291 1.7 5.2 0.00 0.00 0.00 72 1015.3
20260503170526 65 3 1.7 6.1 0.00 0.00 0.00 72 1015.3
20260503170115 65 290 0.9 6.1 0.00 0.00 0.00 72 1015.2
20260503150540 60 296 0.9 4.3 0.00 0.00 0.00 80 1015.7
20260503140109 56 226 0.9 2.6 0.00 0.00 0.00 87 1015.4
20260503131033 53 262 0.0 1.7 0.00 0.00 0.00 90 1015.1
20260503130600 53 242 0.0 0.9 0.00 0.00 0.00 91 1015.2
20260503110537 55 289 0.0 1.7 0.00 0.00 0.00 82 1015.4
20260503081548 56 134 0.0 0.9 0.00 0.00 0.00 81 1015.6
20260503081036 56 134 0.0 1.7 0.00 0.00 0.00 80 1015.5
20260503080530 55 131 0.9 1.7 0.00 0.00 0.00 79 1015.6
20260503072524 57 193 0.0 0.9 0.00 0.00 0.00 75 1015.4
20260503072053 58 193 0.0 0.9 0.00 0.00 0.00 74 1015.4
20260503071540 58 206 0.0 0.9 0.00 0.00 0.00 72 1015.4
20260503071049 59 207 0.0 0.9 0.00 0.00 0.00 71 1015.4
20260503070528 60 270 0.0 0.9 0.00 0.00 0.00 68 1015.4
20260503060120 62 279 2.6 6.1 0.00 0.00 0.00 64 1015.2
20260503055025 62 271 1.7 3.5 0.00 0.00 0.00 65 1015.3
20260503054530 62 271 0.9 3.5 0.00 0.00 0.00 65 1015.3
20260503054038 62 281 1.7 3.5 0.00 0.00 0.00 65 1015.2
20260503053547 62 267 1.7 4.3 0.00 0.00 0.00 65 1015.3
20260503053025 62 266 1.7 4.3 0.00 0.00 0.00 64 1015.2
20260503052533 63 285 1.7 5.2 0.00 0.00 0.00 63 1015.4
20260503052042 63 262 1.7 5.2 0.00 0.00 0.00 63 1015.3
20260503051549 63 269 1.7 4.3 0.00 0.00 0.00 62 1015.2
20260503051029 63 172 1.7 4.3 0.00 0.00 0.00 62 1015.2
20260503050555 63 260 2.6 4.3 0.00 0.00 0.00 62 1015.2
20260503045522 63 285 1.7 5.2 0.00 0.00 0.00 63 1015.1
20260503045028 63 290 2.6 6.1 0.00 0.00 0.00 64 1015.2
20260503044548 63 261 1.7 6.1 0.00 0.00 0.00 64 1015.0
20260503044036 63 295 1.7 5.2 0.00 0.00 0.00 63 1015.0
20260503043526 63 255 2.6 5.2 0.00 0.00 0.00 64 1015.0
20260503043053 63 321 1.7 5.2 0.00 0.00 0.00 64 1014.9
20260503042531 63 301 1.7 8.7 0.00 0.00 0.00 64 1014.9
20260503042039 63 346 3.5 8.7 0.00 0.00 0.00 64 1014.8
20260503041548 63 264 1.7 4.3 0.00 0.00 0.00 64 1014.8
20260503041036 63 245 2.6 4.3 0.00 0.00 0.00 64 1014.7
20260503040544 63 248 2.6 5.2 0.00 0.00 0.00 65 1014.7
20260503040105 63 304 2.6 5.2 0.00 0.00 0.00 65 1014.8
20260503035526 63 274 2.6 5.2 0.00 0.00 0.00 65 1014.6
20260503035056 63 276 1.7 5.2 0.00 0.00 0.00 66 1014.6
20260503034523 63 292 1.7 4.3 0.00 0.00 0.00 65 1014.5
20260503034047 63 354 2.6 7.0 0.00 0.00 0.00 65 1014.5
20260503033527 63 281 1.7 5.2 0.00 0.00 0.00 65 1014.5
20260503033035 63 314 2.6 7.0 0.00 0.00 0.00 64 1014.4
20260503032544 64 262 2.6 7.0 0.00 0.00 0.00 63 1014.4
20260503032031 64 282 2.6 5.2 0.00 0.00 0.00 63 1014.3
20260503031538 64 238 2.6 5.2 0.00 0.00 0.00 62 1014.2
20260503031038 65 293 0.9 5.2 0.00 0.00 0.00 62 1014.3
20260503030547 66 285 1.7 5.2 0.00 0.00 0.00 61 1014.2
20260503030055 66 276 1.7 4.3 0.00 0.00 0.00 61 1014.2
20260503025527 66 278 1.7 6.1 0.00 0.00 0.00 60 1014.3
20260503025025 67 288 2.6 6.1 0.00 0.00 0.00 59 1014.2
20260503024604 67 317 1.7 5.2 0.00 0.00 0.00 59 1014.2
20260503024039 67 278 0.9 6.1 0.00 0.00 0.00 59 1014.2
20260503023525 67 283 2.6 6.1 0.00 0.00 0.00 59 1014.2
20260503023033 68 289 1.7 5.2 0.00 0.00 0.00 60 1014.2
20260503022532 68 293 2.6 4.3 0.00 0.00 0.00 58 1014.1
20260503022041 68 287 0.9 6.1 0.00 0.00 0.00 60 1014.2
20260503021529 68 278 2.6 4.3 0.00 0.00 0.00 59 1014.2
20260503021057 69 275 1.7 4.3 0.00 0.00 0.00 58 1014.2
20260503020536 69 291 2.6 6.1 0.00 0.00 0.00 55 1014.1
20260503020053 70 321 1.7 6.1 0.00 0.00 0.00 55 1014.2
20260503015534 70 254 0.9 4.3 0.00 0.00 0.00 57 1014.4
20260503015042 69 266 0.9 6.1 0.00 0.00 0.00 57 1014.2
20260503014541 69 288 3.5 6.1 0.00 0.00 0.00 58 1014.3
20260503014030 70 84 0.9 6.1 0.00 0.00 0.00 58 1014.4
20260503013539 69 290 0.9 6.1 0.00 0.00 0.00 61 1014.4
20260503013039 69 302 2.6 5.2 0.00 0.00 0.00 60 1014.4
20260503012527 70 261 1.7 4.3 0.00 0.00 0.00 61 1014.4
20260503012035 69 252 1.7 6.1 0.00 0.00 0.00 61 1014.6
20260503011530 69 240 2.6 6.1 0.00 0.00 0.00 61 1014.6
20260503011108 69 247 2.6 6.1 0.00 0.00 0.00 61 1014.7
20260503010526 69 240 2.6 5.2 0.00 0.00 0.00 61 1014.6
20260503010044 69 281 2.6 5.2 0.00 0.00 0.00 62 1014.6
20260503005534 69 257 1.7 6.1 0.00 0.00 0.00 62 1014.7
20260503005032 69 297 2.6 6.1 0.00 0.00 0.00 61 1014.7
20260503004540 69 283 1.7 7.0 0.00 0.00 0.00 64 1014.6
20260503004049 69 296 4.3 7.0 0.00 0.00 0.00 62 1014.7
20260503003536 69 274 3.5 7.0 0.00 0.00 0.00 62 1014.7
20260503003042 69 245 2.6 9.6 0.00 0.00 0.00 62 1014.8
20260503002541 70 219 5.2 9.6 0.00 0.00 0.00 59 1014.7
20260503002028 70 288 4.3 6.1 0.00 0.00 0.00 61 1014.7
20260503001557 70 301 1.7 8.7 0.00 0.00 0.00 60 1014.7
20260503001040 70 270 3.5 9.6 0.00 0.00 0.00 60 1014.7
20260503000538 70 324 4.3 10.4 0.00 0.00 0.00 59 1014.7
20260503000131 70 304 2.6 10.4 0.00 0.00 0.00 60 1014.8
20260502235528 70 248 2.6 9.6 0.00 0.00 0.00 60 1015.0
20260502235036 70 274 3.5 9.6 0.00 0.00 0.00 60 1015.1
20260502234545 70 283 5.2 9.6 0.00 0.00 0.00 59 1015.0
20260502234052 70 288 2.6 9.6 0.00 0.00 0.00 62 1015.1
20260502233531 70 264 5.2 8.7 0.00 0.00 0.00 60 1015.1
20260502233039 70 311 5.2 8.7 0.00 0.00 0.00 59 1015.2
20260502232548 70 306 4.3 8.7 0.00 0.00 0.00 62 1015.1
20260502232047 70 262 4.3 7.8 0.00 0.00 0.00 61 1015.1
20260502231534 70 262 4.3 9.6 0.00 0.00 0.00 60 1015.2
20260502231041 69 312 5.2 9.6 0.00 0.00 0.00 62 1015.2
20260502230528 69 311 5.2 9.6 0.00 0.00 0.00 64 1015.4
20260502230044 69 246 6.1 10.4 0.00 0.00 0.00 61 1015.4
20260502225553 69 271 6.1 10.4 0.00 0.00 0.00 62 1015.4
20260502225101 69 300 4.3 8.7 0.00 0.00 0.00 63 1015.4
20260502224539 69 281 6.1 9.6 0.00 0.00 0.00 62 1015.4
20260502224043 69 295 4.3 9.6 0.00 0.00 0.00 64 1015.5
20260502223532 69 265 5.2 8.7 0.00 0.00 0.00 63 1015.6
20260502223031 69 277 4.3 7.0 0.00 0.00 0.00 62 1015.8
20260502222540 69 284 4.3 7.8 0.00 0.00 0.00 65 1015.8
20260502222048 69 292 4.3 9.6 0.00 0.00 0.00 66 1015.9
20260502221534 68 234 5.2 11.3 0.00 0.00 0.00 64 1016.0
20260502221103 68 281 6.1 11.3 0.00 0.00 0.00 66 1016.2
20260502220529 68 275 3.5 8.7 0.00 0.00 0.00 70 1016.3
20260502220045 68 270 4.3 10.4 0.00 0.00 0.00 67 1016.3
20260502215526 68 290 4.3 9.6 0.00 0.00 0.00 70 1016.3
20260502215106 68 309 2.6 8.7 0.00 0.00 0.00 69 1016.4
20260502214542 68 266 3.5 9.6 0.00 0.00 0.00 69 1016.3
20260502214051 67 281 5.2 9.6 0.00 0.00 0.00 70 1016.4
20260502213559 68 303 4.3 7.0 0.00 0.00 0.00 69 1016.5
20260502213042 67 297 4.3 10.4 0.00 0.00 0.00 71 1016.5
20260502212528 67 305 7.0 10.4 0.00 0.00 0.00 68 1016.6